Location: Lecco
(45.8566°N, 9.3977°E)
Time: 13:06:20
(UTC+02:00)

Vanguard 2 Rocket - Pass Details

Date: 23 August 2020
Orbit: 554 x 3326 km, 32.9° (Epoch: 24 September)

Event Time Altitude Azimuth Distance (km) Brightness Sun altitude
Rises 16:48:04 0° 237° (WSW) 2,714 10.4 34.8°
Reaches altitude 10° 16:50:52 10° 213° (SSW) 1,866 9.4 34.3°
Maximum altitude 16:53:25 16° 174° (S) 1,620 8.5 33.9°
Drops below altitude 10° 16:56:22 10° 135° (SE) 2,192 8.7 33.4°
Sets 17:00:06 0° 115° (ESE) 3,480 9.5 32.8°
